Вернуться в каталог

SL-19 DEB

АктивенUNKNOWN
NORAD 23496·DEBRIS·🇷🇺 Russia

Запущен Dec 26, 1994 с Baikonur Cosmodrome

Loading…

Ближайшие Пролёты (ближайшие 24 часа)

TLE

СвежийSource: Space-Track

Эпоха: Sep 11, 2026, 17:58 UTC

1 23496U 94085U   26254.74908516  .00002654  00000-0  67973-1 0  9999
2 23496  64.8309  62.8140 0247449 287.9577  83.3576 11.34270281309094

Отслеживайте SL-19 DEB в реальном времени с AllMySat

Download on the App Store